Location: Risskov
(56.1972°N, 10.2480°E)
Time: 13:24:58
(UTC+00:00)

Helios 1B rocket - Pass Details

Date: 05 July 2020
Orbit: 574 x 584 km, 98.1° (Epoch: 06 August)

Event Time Altitude Azimuth Distance (km) Brightness Sun altitude
Rises 23:45:46 0° 18° (NNE) 2,821 7.8 -11.0°
Reaches altitude 10° 23:47:59 10° 23° (NNE) 1,915 6.4 -11.0°
Maximum altitude 23:52:03 54° 101° (E) 716 2.8 -10.9°
Enters shadow 23:55:18 15° 176° (S) 1,584 4.0 -10.9°
